Date_and_time,latitude,longitude,wind_speed,RelWindDirFrom,WindDirFrom,air_pressure,air_temperature,relative_humidity,Temp,platform_speed_wrt_ground,air_pressure_at_mean_sea_level,platform_orientation
2019-05-23 23:40,50.6304483333333,-96.9807783333333,2.6,4.0,78,991.53,17.1,62,13.24,0.0,1017.87,283.5
2019-05-23 23:50,50.63045,-96.9807716666667,2.2,3.5,88,991.51,17.1,59,13.23,0.0,1017.82,283.5
2019-05-24 00:00,50.6304466666667,-96.9807716666667,1.3,2.2,121,991.54,17.1,59,13.29,0.0,1017.86,305.3
2019-05-24 00:10,50.630445,-96.9807666666667,1.5,3.0,100,991.58,17.2,53,13.31,0.0,1017.92,305.3
2019-05-24 00:20,50.6304283333333,-96.9807566666667,1.6,2.6,92,991.62,17.8,51,13.35,0.0,1017.92,305.3
2019-05-24 00:30,50.63045,-96.980775,0.7,2.1,79,991.63,17.8,52,13.41,0.0,1017.90,305.3
2019-05-24 00:40,50.6304333333333,-96.980745,0.4,1.2,53,991.62,17.7,52,13.39,0.0,1017.87,305.3
2019-05-24 00:50,50.630435,-96.9807533333333,1.2,2.2,21,991.61,17.3,50,13.29,0.0,1017.89,305.3
2019-05-24 01:00,50.6304533333333,-96.9807733333333,1.9,2.7,41,991.56,16.8,49,13.22,0.0,1017.89,316.8
2019-05-24 01:10,50.630445,-96.98077,2.2,3.0,15,991.45,16.4,49,13.27,0.0,1017.76,316.8
2019-05-24 01:20,50.6304466666667,-96.9807566666667,2.9,4.0,2,991.39,16.2,47,13.27,0.0,1017.69,316.8
2019-05-24 01:30,50.6304483333333,-96.9807533333333,3.3,3.9,8,991.27,16.1,47,13.23,0.0,1017.61,316.8
2019-05-24 01:40,50.6304583333333,-96.9807516666667,2.6,3.4,9,991.24,16.0,49,13.15,0.0,1017.58,316.8
2019-05-24 01:50,50.6304483333333,-96.9807433333333,2.5,3.3,1,991.18,15.9,47,13.14,0.0,1017.53,316.8
2019-05-24 02:00,50.6304533333333,-96.9807583333333,1.6,2.5,347,991.21,16.0,47,13.19,0.0,1017.55,48.3
2019-05-24 02:10,50.630455,-96.9807566666667,0.7,1.3,352,991.31,16.0,44,13.16,0.0,1017.63,48.3
2019-05-24 02:20,50.63045,-96.9807583333333,0.8,1.5,339,991.43,15.8,44,13.10,0.0,1017.76,48.3
2019-05-24 02:30,50.6304483333333,-96.9807616666667,1.0,1.6,311,991.51,15.5,44,13.14,0.0,1017.86,48.3
2019-05-24 02:40,50.6304483333333,-96.9807616666667,0.1,0.8,287,991.66,15.1,48,13.26,0.0,1018.05,48.3
2019-05-24 02:50,50.6304483333333,-96.9807616666667,1.9,2.9,188,991.80,14.3,63,13.36,0.0,1018.25,48.3
2019-05-24 03:00,50.63046,-96.9807483333333,2.0,2.7,210,992.05,13.9,59,13.40,0.0,1018.55,49.4
2019-05-24 03:10,50.6304533333333,-96.9807483333333,1.8,2.4,241,992.12,14.0,49,13.49,0.0,1018.63,49.4
2019-05-24 03:20,50.6304433333333,-96.9807533333333,2.1,2.8,226,992.12,13.7,50,13.48,0.0,1018.64,49.4
2019-05-24 03:30,50.630445,-96.9807566666667,1.8,2.1,220,992.13,13.2,51,13.51,0.0,1018.68,49.4
2019-05-24 03:40,50.630445,-96.9807583333333,2.2,2.7,254,992.14,13.2,50,13.49,0.0,1018.69,49.4
2019-05-24 03:50,50.6304466666667,-96.98076,2.7,4.0,253,992.19,13.1,52,13.44,0.0,1018.74,49.4
2019-05-24 04:00,50.6304466666667,-96.9807616666667,1.2,2.4,239,992.23,12.6,56,13.47,0.0,1018.81,119.2
2019-05-24 04:10,50.630445,-96.9807816666667,2.0,3.3,256,992.24,11.9,59,13.41,0.0,1018.86,119.2
2019-05-24 04:20,50.6304516666667,-96.98075,3.2,4.1,268,992.08,11.7,57,13.35,0.0,1018.72,119.2
2019-05-24 04:30,50.630455,-96.9807616666667,3.0,3.8,250,992.10,11.7,58,13.34,0.0,1018.75,119.2
2019-05-24 04:40,50.63045,-96.9807616666667,1.8,3.4,261,992.04,11.5,60,13.35,0.0,1018.75,119.2
2019-05-24 04:50,50.6304483333333,-96.9807633333333,2.5,4.0,292,991.90,11.7,58,13.33,0.0,1018.61,119.2
2019-05-24 05:00,50.630445,-96.9807633333333,2.7,3.3,299,991.66,12.0,57,13.33,0.0,1018.35,194.5
2019-05-24 05:10,50.630445,-96.9807616666667,2.1,2.9,278,991.54,12.3,55,13.36,0.0,1018.22,194.5
2019-05-24 05:20,50.630445,-96.98076,1.9,2.8,296,991.34,12.1,55,13.34,0.0,1018.05,194.5
2019-05-24 05:30,50.630445,-96.98076,1.5,2.2,342,991.17,13.0,51,13.32,0.0,1017.83,194.5
2019-05-24 05:40,50.6304466666667,-96.98076,1.4,2.4,357,991.09,13.2,53,13.31,0.0,1017.75,194.5
2019-05-24 05:50,50.6304466666667,-96.9807616666667,0.6,1.4,48,991.08,12.8,63,13.29,0.0,1017.77,194.5
2019-05-24 06:00,50.6304466666667,-96.9807616666667,1.2,3.2,30,990.94,12.1,70,13.28,0.0,1017.70,194.5
2019-05-24 06:10,50.6304466666667,-96.98076,2.7,3.4,29,990.75,11.5,78,13.27,0.0,1017.54,194.5
2019-05-24 06:20,50.6304466666667,-96.9807616666667,4.4,5.6,29,990.64,11.7,91,13.24,0.0,1017.41,194.5
2019-05-24 06:30,50.6304533333333,-96.9807683333333,4.8,5.8,32,990.53,12.2,88,13.23,0.0,1017.30,194.5
2019-05-24 06:40,50.6304483333333,-96.9807683333333,3.8,6.5,67,990.52,12.3,83,13.21,0.0,1017.27,194.5
2019-05-24 06:50,50.6304483333333,-96.9807683333333,5.3,8.0,109,990.60,12.5,86,13.24,0.0,1017.33,194.5
2019-05-24 07:00,50.6304466666667,-96.9807666666667,6.9,8.9,122,990.50,12.9,82,13.41,0.0,1017.20,270.0
2019-05-24 07:10,50.630445,-96.980765,5.6,7.7,153,990.42,12.5,78,13.51,0.0,1017.14,270.0
2019-05-24 07:20,50.630445,-96.9807633333333,4.5,5.9,179,990.30,12.4,80,13.41,0.0,1016.98,270.0
2019-05-24 07:30,50.630445,-96.9807616666667,6.0,7.1,181,990.32,11.8,81,13.43,0.0,1017.02,270.0
2019-05-24 07:40,50.6304416666667,-96.9807716666667,5.7,7.2,182,990.23,11.3,84,13.40,0.0,1016.96,270.0
2019-05-24 07:50,50.630445,-96.9807683333333,6.5,8.5,177,990.16,11.5,79,13.34,0.0,1016.91,270.0
2019-05-24 08:00,50.6304466666667,-96.980765,6.9,8.3,180,990.09,11.4,70,13.47,0.0,1016.88,360.0
2019-05-24 08:10,50.630445,-96.98076,6.3,8.4,194,989.96,10.9,71,13.63,0.0,1016.76,360.0
2019-05-24 08:20,50.63045,-96.9807566666667,7.2,9.5,199,990.00,10.6,70,13.65,0.0,1016.79,360.0
2019-05-24 08:30,50.6304533333333,-96.98076,7.1,10.5,198,989.94,10.5,69,13.68,0.0,1016.73,360.0
2019-05-24 08:40,50.6304533333333,-96.98076,6.5,9.5,195,989.95,10.3,70,13.69,0.0,1016.74,360.0
2019-05-24 08:50,50.630455,-96.98076,7.0,8.7,199,989.88,10.1,68,13.70,0.0,1016.65,360.0
2019-05-24 09:00,50.6304516666667,-96.98076,6.8,8.6,189,989.81,9.9,69,13.70,0.0,1016.62,360.0
2019-05-24 09:10,50.6304516666667,-96.98076,6.4,8.6,185,989.76,9.6,71,13.68,0.0,1016.58,360.0
2019-05-24 09:20,50.6304533333333,-96.9807583333333,5.6,7.8,192,989.66,9.7,73,13.69,0.0,1016.50,360.0
2019-05-24 09:30,50.6304533333333,-96.9807583333333,6.2,8.2,184,989.57,9.9,73,13.68,0.0,1016.43,360.0
2019-05-24 09:40,50.6304533333333,-96.9807583333333,7.9,9.7,183,989.62,10.2,74,13.67,0.0,1016.45,360.0
2019-05-24 09:50,50.6304516666667,-96.98076,8.0,9.9,186,989.78,10.0,78,13.66,0.0,1016.63,360.0
2019-05-24 10:00,50.6304516666667,-96.98076,9.2,12.1,183,989.87,9.8,82,13.65,0.0,1016.76,12.6
2019-05-24 10:10,50.6304516666667,-96.98076,7.8,10.2,183,989.91,9.9,84,13.63,0.0,1016.81,12.6
2019-05-24 10:20,50.6304533333333,-96.98076,8.4,11.2,177,989.77,9.8,84,13.62,0.0,1016.68,12.6
2019-05-24 10:30,50.6304533333333,-96.98076,10.0,11.6,177,989.70,10.1,82,13.61,0.0,1016.59,12.6
2019-05-24 10:40,50.6304516666667,-96.98076,9.6,11.1,180,989.72,10.1,83,13.59,0.0,1016.62,12.6
2019-05-24 10:50,50.6304516666667,-96.98076,10.1,12.1,181,989.76,10.1,82,13.57,0.0,1016.68,12.6
2019-05-24 11:00,50.6304516666667,-96.98076,10.0,12.2,180,989.79,10.1,83,13.55,0.0,1016.72,12.6
2019-05-24 11:10,50.6304516666667,-96.9807616666667,11.1,12.8,179,989.84,10.4,83,13.53,0.0,1016.76,12.6
2019-05-24 11:20,50.6304516666667,-96.9807616666667,11.6,14.5,177,989.92,10.4,84,13.51,0.0,1016.82,12.6
2019-05-24 11:30,50.6304533333333,-96.9807616666667,12.0,14.7,176,989.91,10.7,84,13.49,0.0,1016.79,12.6
2019-05-24 11:40,50.6304533333333,-96.98076,11.8,14.4,172,989.89,11.2,86,13.47,0.0,1016.75,12.6
2019-05-24 11:50,50.6304533333333,-96.9807616666667,12.7,16.5,164,989.77,11.5,85,13.44,0.0,1016.63,12.6
2019-05-24 12:00,50.6304533333333,-96.9807616666667,13.2,17.2,164,989.71,11.6,82,13.42,0.0,1016.56,90.0
2019-05-24 12:10,50.6304516666667,-96.9807616666667,13.2,16.8,161,989.74,11.5,82,13.40,0.0,1016.59,90.0
2019-05-24 12:20,50.6304516666667,-96.9807616666667,13.0,16.3,162,989.73,11.5,81,13.37,0.0,1016.58,90.0
2019-05-24 12:30,50.63044,-96.980765,12.9,16.1,153,989.69,11.4,82,13.35,0.0,1016.54,90.0
2019-05-24 12:40,50.63044,-96.9807633333333,12.8,16.6,144,989.74,11.3,82,13.34,0.0,1016.59,90.0
2019-05-24 12:50,50.6304366666667,-96.98076,12.6,15.3,146,989.77,11.1,83,13.32,0.0,1016.63,90.0
2019-05-24 13:00,50.6304366666667,-96.9807583333333,12.2,14.7,145,989.67,11.1,82,13.32,0.0,1016.52,360.0
2019-05-24 13:10,50.6304266666667,-96.98076,12.6,16.8,141,989.63,11.5,80,13.31,0.0,1016.46,360.0
2019-05-24 13:20,50.630445,-96.980775,14.5,17.7,146,989.62,11.2,78,13.29,0.0,1016.45,360.0
2019-05-24 13:30,50.6304433333333,-96.9807566666667,15.5,18.4,151,989.62,11.0,80,13.28,0.0,1016.43,360.0
2019-05-24 13:40,50.6278333333333,-96.9625633333333,18.2,26.0,154,989.17,11.6,77,13.18,4.3,1015.93,360.0
2019-05-24 13:50,50.6286166666667,-96.9619316666667,12.9,15.5,156,988.94,11.5,76,12.09,0.3,1015.69,360.0
2019-05-24 14:00,50.6286333333333,-96.961895,13.6,17.4,153,988.39,11.3,74,11.72,0.0,1015.14,98.7
2019-05-24 14:10,50.628625,-96.9619366666667,13.7,16.6,154,988.35,11.2,74,11.63,0.0,1015.11,98.7
2019-05-24 14:20,50.6285883333333,-96.961965,11.0,13.5,149,988.19,11.0,76,11.56,0.0,1014.95,98.7
2019-05-24 14:30,50.6285966666667,-96.9619466666667,11.1,14.2,139,987.89,11.0,76,11.53,0.0,1014.64,98.7
2019-05-24 14:40,50.628595,-96.9619183333333,11.0,13.5,136,987.86,11.0,77,11.50,0.0,1014.63,98.7
2019-05-24 14:50,50.628605,-96.9619666666667,11.6,13.7,132,987.75,11.0,76,11.47,0.0,1014.52,98.7
2019-05-24 15:00,50.6286016666667,-96.9619983333333,10.6,13.4,129,987.66,11.0,76,11.45,0.0,1014.41,98.8
2019-05-24 15:10,50.6285283333333,-96.9620966666667,9.7,12.4,123,987.55,11.1,78,11.43,0.0,1014.29,98.8
2019-05-24 15:20,50.6285033333333,-96.962115,10.8,12.9,124,987.33,11.2,76,11.42,0.0,1014.08,98.8
2019-05-24 15:30,50.6285316666667,-96.9620483333333,10.3,12.0,119,986.99,11.3,76,11.41,0.0,1013.69,98.8
2019-05-24 15:40,50.628515,-96.9620733333333,11.5,13.4,112,986.46,11.4,75,11.40,0.0,1013.15,98.8
2019-05-24 15:50,50.62852,-96.9620833333333,11.9,14.6,110,986.23,11.5,74,11.39,0.0,1012.92,98.8
2019-05-24 16:00,50.6285283333333,-96.962075,12.5,15.1,110,986.10,11.6,75,11.39,0.0,1012.78,99.2
2019-05-24 16:10,50.6285266666667,-96.9620866666667,11.2,13.3,113,986.02,11.7,73,11.37,0.0,1012.70,99.2
2019-05-24 16:20,50.625825,-96.9757266666667,7.3,13.6,120,986.03,11.6,74,11.38,3.3,1012.73,99.2
2019-05-24 16:30,50.6304333333333,-96.9807533333333,8.2,11.9,92,985.90,12.4,75,12.33,2.0,1012.55,99.2
2019-05-24 16:40,50.6304283333333,-96.980745,9.7,11.8,83,985.51,12.8,77,12.87,0.0,1012.13,99.2
2019-05-24 16:50,50.6304333333333,-96.98075,10.4,12.9,81,985.34,12.5,77,12.99,0.0,1011.97,99.2
2019-05-24 17:00,50.630425,-96.980755,9.8,11.7,81,985.31,12.5,77,13.03,0.0,1011.93,278.5
2019-05-24 17:10,50.6304283333333,-96.9807566666667,9.1,11.0,84,985.19,12.6,75,13.06,0.0,1011.80,278.5
2019-05-24 17:20,50.6304233333333,-96.9807516666667,8.6,10.9,85,984.92,12.6,76,13.09,0.0,1011.52,278.5
2019-05-24 17:30,50.6304233333333,-96.9807516666667,9.0,11.4,86,984.60,12.6,77,13.10,0.0,1011.18,278.5
2019-05-24 17:40,50.6304266666667,-96.9807483333333,8.7,10.5,92,984.47,12.8,76,13.09,0.0,1011.04,278.5
2019-05-24 17:50,50.6304416666667,-96.980745,9.7,11.4,98,984.64,13.2,75,13.11,0.0,1011.19,278.5
2019-05-24 18:00,50.6295216666667,-96.9811883333333,9.7,12.5,106,984.47,13.3,74,13.12,0.3,1011.01,274.3
2019-05-24 18:10,50.629225,-96.9593516666667,16.0,22.3,111,984.01,12.5,72,12.64,5.0,1010.58,274.3
2019-05-24 18:20,50.6293216666667,-96.9593966666667,11.8,14.1,113,984.14,12.2,72,11.62,0.0,1010.69,274.3
2019-05-24 18:30,50.62935,-96.9593616666667,13.2,15.6,119,984.01,12.2,71,11.48,0.0,1010.53,274.3
2019-05-24 18:40,50.6293216666667,-96.9593866666667,12.3,14.3,120,984.02,12.1,74,11.41,0.0,1010.57,274.3
2019-05-24 18:50,50.6293233333333,-96.9594066666667,11.8,13.9,125,984.02,12.0,76,11.36,0.0,1010.56,274.3
2019-05-24 19:00,50.6293233333333,-96.959395,10.8,12.6,127,983.98,11.7,79,11.33,0.0,1010.53,64.8
2019-05-24 19:10,50.6293283333333,-96.95936,11.0,12.9,123,983.71,11.6,80,11.36,0.0,1010.27,64.8
2019-05-24 19:20,50.629385,-96.9593083333333,10.3,11.9,125,983.57,11.5,83,11.43,0.0,1010.13,64.8
2019-05-24 19:30,50.6293933333333,-96.9593116666667,10.9,12.9,127,983.44,11.4,83,11.42,0.0,1009.99,64.8
2019-05-24 19:40,50.6294066666667,-96.9593,11.3,13.8,138,983.34,11.2,86,11.38,0.0,1009.88,64.8
2019-05-24 19:50,50.62938,-96.959315,10.7,12.7,142,983.40,11.1,89,11.36,0.0,1009.93,64.8
2019-05-24 20:00,50.6293466666667,-96.9593916666667,11.5,13.7,135,983.15,11.0,90,11.50,0.0,1009.72,94.6
2019-05-24 20:10,50.6292666666667,-96.9594433333333,11.1,13.4,117,982.71,10.8,92,11.53,0.0,1009.30,94.6
2019-05-24 20:20,50.6293333333333,-96.95936,9.7,11.2,116,982.67,10.6,95,11.55,0.0,1009.26,94.6
2019-05-24 20:30,50.629365,-96.95935,10.1,12.8,122,982.70,10.6,95,11.55,0.0,1009.30,94.6
2019-05-24 20:40,50.6292166666667,-96.9589916666667,10.4,12.3,120,982.63,10.5,96,11.55,0.1,1009.23,94.6
2019-05-24 20:50,50.6304616666667,-96.98082,7.4,14.3,131,982.73,10.6,97,11.81,5.0,1009.35,94.6
2019-05-24 21:00,50.630445,-96.9807616666667,11.3,13.6,97,982.56,11.7,95,12.70,0.0,1009.12,16.8
2019-05-24 21:10,50.6304416666667,-96.9807633333333,10.1,11.8,93,982.40,11.5,98,12.88,0.0,1008.98,16.8
2019-05-24 21:20,50.6304416666667,-96.98076,8.8,11.5,90,982.22,11.2,99,12.93,0.0,1008.81,16.8
2019-05-24 21:30,50.63044,-96.9807633333333,9.4,13.6,89,982.03,11.1,99,12.95,0.0,1008.63,16.8
2019-05-24 21:40,50.63044,-96.9807633333333,10.4,13.9,83,981.92,11.0,100,12.96,0.0,1008.53,16.8
2019-05-24 21:50,50.6304366666667,-96.98078,13.3,20.1,88,981.87,10.8,100,12.97,0.0,1008.49,16.8
2019-05-24 22:00,50.630425,-96.980765,16.5,20.0,92,981.66,10.7,99,12.97,0.0,1008.29,274.7
2019-05-24 22:10,50.6304316666667,-96.9807633333333,17.3,20.6,98,981.58,10.6,99,12.98,0.0,1008.22,274.7
2019-05-24 22:20,50.6304366666667,-96.980765,17.2,21.0,96,981.45,10.4,99,13.00,0.0,1008.09,274.7
2019-05-24 22:30,50.6304266666667,-96.9807683333333,15.3,18.8,87,981.20,10.2,99,12.98,0.0,1007.85,274.7
2019-05-24 22:40,50.6304366666667,-96.9807683333333,16.6,19.1,80,980.94,10.2,92,12.98,0.0,1007.58,274.7
2019-05-24 22:50,50.63044,-96.9807766666667,16.3,19.3,78,980.75,10.2,93,13.00,0.0,1007.33,274.7
2019-05-24 23:00,50.6304383333333,-96.9807733333333,15.1,18.4,76,980.64,10.3,94,13.01,0.0,1007.23,274.6
2019-05-24 23:10,50.6304383333333,-96.9807733333333,13.6,16.5,78,980.56,10.3,96,13.00,0.0,1007.15,274.6
2019-05-24 23:20,50.6304533333333,-96.9807833333333,13.0,16.1,79,980.41,10.3,97,12.99,0.0,1007.00,274.6
2019-05-24 23:30,50.63043,-96.9807766666667,12.3,14.7,79,980.37,10.3,98,12.98,0.0,1006.97,274.6
2019-05-24 23:40,50.63043,-96.980775,12.2,15.5,76,980.27,10.2,99,12.98,0.0,1006.88,274.6
2019-05-24 23:50,50.6304333333333,-96.9807733333333,13.3,16.0,70,980.12,10.0,100,12.98,0.0,1006.74,274.6
